Regional Weather Roundup
Issued by NWS

Home | Current Version | Previous Version | Graphics & Text | Print | Product List | Glossary On
Versions: 1 2 3 4 5 6 7 8 9 10 11 12 13 14 15 16 17 18 19 20 21 22 23 24 25 26 27 28 29 30 31 32 33 34 35 36 37 38 39 40 41 42 43 44 45 46 47 48 49 50
000
ASUS45 KTFX 291504
RWRMT
MONTANA REGIONAL WEATHER ROUNDUP
NATIONAL WEATHER SERVICE GREAT FALLS MT
900 AM MDT SAT AUG 29 2015

NOTE: "FAIR" INDICATES FEW OR NO CLOUDS BELOW 12000 FEET WITH NO
SIGNIFICANT WEATHER AND/OR OBSTRUCTIONS TO VISIBILITY.

MTZ001>007-043-291600-
WEST OF THE DIVIDE

CITY           SKY/WX    TMP DP  RH WIND       PRES   REMARKS
KALISPELL      CLOUDY    60  47  61 N8        29.81F SMOKE
MISSOULA       CLOUDY    58  46  64 CALM      29.86F HAZE
BUTTE          CLOUDY    66  42  41 VRB5      30.06F HAZE
MULLAN PASS    CLOUDY    63  35  35 VRB3      29.96R HAZE
DEER LODGE       N/A     72  41  33 S9G16     30.02S
EUREKA           N/A     61  43  51 CALM        N/A
HAMILTON         N/A     61  48  63 E2        29.88S
LIBBY            N/A     59  45  58 CALM      29.79F
$$

MTZ008-052>055-291600-
SOUTHWEST MONTANA

CITY           SKY/WX    TMP DP  RH WIND       PRES   REMARKS
BOZEMAN        CLOUDY    64  46  52 SE3       30.05F HAZE
DILLON         PTSUNNY   64  41  42 SE5       30.05F HAZE
W YELLOWSTONE  PTSUNNY   55  37  50 SW3       30.25F
$$

MTZ009-010-012-014-046-048-049-054-291600-
EAST SLOPES AND CENTRAL MONTANA

CITY           SKY/WX    TMP DP  RH WIND       PRES   REMARKS
CUT BANK       CLOUDY    60  39  45 E6        29.89S HAZE
GREAT FALLS    PTSUNNY   77  40  26 SE13      29.91F HAZE
MALMSTROM AFB  CLOUDY    74  40  30 S8        29.90F
HELENA         CLOUDY    69  44  40 W7        29.97F SMOKE
$$

MTZ011-013-016-021-045-047-050-051-291600-
NORTH CENTRAL MONTANA

CITY           SKY/WX    TMP DP  RH WIND       PRES   REMARKS
HAVRE          CLOUDY    68  48  48 CALM      29.87S HAZE
LEWISTOWN      CLOUDY    69  46  43 SE6       30.01S HAZE
N BAR RANCH      N/A     64  46  52 CALM      30.06F HAZE
CHINOOK          N/A     68  48  49 NE3       29.87F
FORT BENTON      N/A     70  48  46 CALM      29.88F
$$

MTZ017>020-022>027-061-062-291600-
NORTHEAST MONTANA

CITY           SKY/WX    TMP DP  RH WIND       PRES   REMARKS
GLASGOW        CLOUDY    72  47  40 CALM      29.90S HAZE
JORDAN           N/A     71  45  39 CALM      29.92F
SIDNEY         PTSUNNY   63  52  67 S7        29.91F
WOLF POINT     CLOUDY    66  48  52 CALM      29.89S HAZE
PLENTYWOOD       N/A     66  46  48 SE8       29.88S
POPLAR           N/A     70  46  43 S5        29.88F
$$

MTZ028>42-056>058-291600-
SOUTHCENTRAL AND SOUTHEAST MONTANA

CITY           SKY/WX    TMP DP  RH WIND       PRES   REMARKS
BAKER          SUNNY     76  48  37 E7        29.99S HAZE
BILLINGS       PTSUNNY   67  44  43 SW9       30.02R
LIVINGSTON     MOSUNNY   64  42  44 NW6       30.07S HAZE
MILES CITY     SUNNY     69  46  43 SE7       29.94F HAZE
FORSYTH          N/A     75  46  35 CALM      29.95S
$$

REGIONAL REPORTS...DAKOTAS

CITY           SKY/WX    TMP DP  RH WIND       PRES   REMARKS
WILLISTON      PTSUNNY   67  51  56 S6        29.91F HAZE
MINOT          CLOUDY    69  53  56 S8        29.90S HAZE
DICKINSON      SUNNY     76  49  38 S8        29.96S HAZE
BISMARCK       CLOUDY    67  61  81 CALM      29.96S
GRAND FORKS    CLOUDY    66  65  96 S8        29.90F
FARGO          SUNNY     69  61  75 S12       29.95S
BUFFALO SD       N/A     70  54  56 CALM      29.95F
RAPID CITY     SUNNY     66  57  72 CALM      30.06S
$$

REGIONAL REPORTS...WYOMING/IDAHO/WASHINGTON

CITY           SKY/WX    TMP DP  RH WIND       PRES   REMARKS
GILLETTE       SUNNY     76  45  33 S12       30.09S
SHERIDAN       SUNNY     69  45  41 CALM      30.04S
BUFFALO WY     SUNNY     80  39  23 S5        30.12S
CODY           MOSUNNY   72  41  33 SW7       30.12S
YELLOWSTONE LA   N/A     58  45  62 CALM      30.36S
IDAHO FALLS    LGT RAIN  66  51  58 NE5       30.07S
SALMON         CLOUDY    64  45  48 CALM      29.94F
BOISE          CLOUDY    77  42  28 SE10      29.84R
SPOKANE        CLOUDY    71  44  37 SE9       29.62F HAZE
$$

REGIONAL REPORTS...ALBERTA

CITY           SKY/WX    TMP DP  RH WIND       PRES   REMARKS
$$

REGIONAL REPORTS...SASKATCHEWAN

CITY           SKY/WX    TMP DP  RH WIND       PRES   REMARKS
SWIFT CURRENT  SUNNY     70  46  43 SW13      29.85R HAZE
$$


USA.gov is the U.S. government's official web portal to all federal, state and local government web resources and services.